Voltar ao catálogo

BEIDOU 3 G3

AtivoNavegaçãoGEO
NORAD 45807·PAYLOAD·🇨🇳 China

Lançado Jun 23, 2020 de Xichang Satellite Launch Center

Loading…

TLE

AtualizadoSource: Space-Track

Época: Sep 14, 2026, 14:19 UTC

1 45807U 20040A   26257.59702777 -.00000360  00000-0  00000-0 0  9996
2 45807   2.6624  67.4137 0002655 284.4076 327.2119  1.00268732 22966

Acompanhe BEIDOU 3 G3 em tempo real com AllMySat

Download on the App Store